Location: Champs
(48.8539°N, 2.6040°E)
Time: 13:39:07
(UTC+00:00)

NOSS 0 Rocket - Pass Details

Date: 26 October 2021
Orbit: 937 x 952 km, 70.0° (Epoch: 06 December)

Event Time Altitude Azimuth Distance (km) Brightness Sun altitude
Exits shadow 04:36:50 - 331° (NNW) 3,533 6.7 -18.7°
Reaches altitude 10° 04:39:13 10° 334° (NNW) 2,661 6.1 -18.3°
Maximum altitude 04:45:20 62° 55° (NE) 1,050 4.4 -17.3°
Drops below altitude 10° 04:51:25 10° 137° (SE) 2,647 6.9 -16.3°
Sets 04:53:58 0° 140° (SE) 3,588 7.6 -15.9°
